This is the latest recevied weather packets stored in our database for station/object SR5NLK-1. If no packets are shown the sender has not sent any weather packets the latest 10 day(s).
| Time | Temp. | Humidity | Pressure | Rain* | Wind** | Luminosity | Snow |
|---|---|---|---|---|---|---|---|
| 1787840099 | 25° C | 42% | 1065.8 hPa | 0 mm | - | - | - |
| 1787839841 | 24.44° C | 42% | 1029.9 hPa | 0 mm | - | - | - |
| 1787839799 | 24.44° C | 42% | 1029.9 hPa | 0 mm | - | - | - |
| 1787839618 | 24.44° C | 41% | 1094.1 hPa | 0 mm | - | - | - |
| 1787839499 | 25° C | 41% | 1072.1 hPa | 0 mm | - | - | - |
| 1787839199 | 25.56° C | 40% | 1081.6 hPa | 0 mm | - | - | - |
| 1787838902 | 27.78° C | 38% | 1086.2 hPa | 0 mm | - | - | - |
| 1787838899 | 26.11° C | 40% | 1080.3 hPa | 0 mm | - | - | - |
| 1787838465 | 26.67° C | 40% | 1084.6 hPa | 0 mm | - | - | - |
| 1787838299 | 25.56° C | 41% | 1037.5 hPa | 0 mm | - | - | - |
| 1787838226 | 26.67° C | 40% | 1053.2 hPa | 0 mm | - | - | - |
| 1787837999 | 25.56° C | 41% | 1062.7 hPa | 0 mm | - | - | - |
| 1787837949 | 26.67° C | 40% | 1048.9 hPa | 0 mm | - | - | - |
| 1787837699 | 25.56° C | 40% | 1032.7 hPa | 0 mm | - | - | - |
| 1787837663 | 27.22° C | 40% | 1030.2 hPa | 0 mm | - | - | - |
| 1787837638 | 25.56° C | 39% | 1028.1 hPa | 0 mm | - | - | - |
| 1787837399 | 26.11° C | 39% | 1084.6 hPa | 0 mm | - | - | - |
| 1787837099 | 26.11° C | 39% | 1078.4 hPa | 0 mm | - | - | - |
| 1787837030 | 26.67° C | 40% | 1027.1 hPa | 0 mm | - | - | - |
| 1787836799 | 26.11° C | 40% | 1083.7 hPa | 0 mm | - | - | - |
| 1787836513 | 27.22° C | 40% | 1081.5 hPa | 0 mm | - | - | - |
| 1787836500 | 25.56° C | 41% | 1067.3 hPa | 0 mm | - | - | - |
| 1787836199 | 25.56° C | 40% | 1088 hPa | 0 mm | - | - | - |
| 1787835979 | 26.67° C | 42% | 1090.9 hPa | 0 mm | - | - | - |
| 1787835899 | 25.56° C | 39% | 1027.1 hPa | 0 mm | - | - | - |
* Rain latest hour (hover to see other rain measurements)
** Current wind speed in m/s (hover to see current wind gust speed)